TimeEST,TemperatureF,Dew PointF,Humidity,Sea Level PressureIn,VisibilityMPH,Wind Direction,Wind SpeedMPH,Gust SpeedMPH,PrecipitationIn,Events,Conditions,WindDirDegrees,DateUTC
12:51 AM,29.1,21.0,72,30.16,10.0,Calm,Calm,-,N/A,,Clear,0,2012-11-29 05:51:00
1:51 AM,30.0,21.0,69,30.18,10.0,Calm,Calm,-,N/A,,Partly Cloudy,0,2012-11-29 06:51:00
2:51 AM,30.0,22.1,72,30.19,10.0,Calm,Calm,-,N/A,,Clear,0,2012-11-29 07:51:00
3:51 AM,30.0,22.1,72,30.19,10.0,Calm,Calm,-,N/A,,Overcast,0,2012-11-29 08:51:00
4:51 AM,31.1,23.0,72,30.20,10.0,Calm,Calm,-,N/A,,Overcast,0,2012-11-29 09:51:00
5:51 AM,30.0,22.1,72,30.22,10.0,Variable,3.5,-,N/A,,Clear,0,2012-11-29 10:51:00
6:51 AM,28.0,22.1,78,30.23,10.0,SSW,3.5,-,N/A,,Clear,200,2012-11-29 11:51:00
7:51 AM,30.0,22.1,72,30.25,10.0,Calm,Calm,-,N/A,,Clear,0,2012-11-29 12:51:00
8:51 AM,34.9,16.2,46,30.26,10.0,NW,11.5,-,N/A,,Clear,310,2012-11-29 13:51:00
9:51 AM,37.9,17.1,43,30.26,10.0,Variable,4.6,-,N/A,,Clear,0,2012-11-29 14:51:00
10:51 AM,38.8,18.1,43,30.25,10.0,West,12.7,-,N/A,,Partly Cloudy,260,2012-11-29 15:51:00
11:51 AM,39.9,20.1,45,30.21,10.0,WNW,12.7,-,N/A,,Clear,290,2012-11-29 16:51:00
12:51 PM,41.0,21.0,45,30.18,10.0,WNW,10.4,-,N/A,,Clear,290,2012-11-29 17:51:00
1:51 PM,41.9,22.1,45,30.16,10.0,West,10.4,-,N/A,,Clear,260,2012-11-29 18:51:00
2:51 PM,41.9,21.0,43,30.15,10.0,Variable,4.6,-,N/A,,Clear,0,2012-11-29 19:51:00
3:51 PM,41.9,15.1,34,30.15,10.0,West,6.9,-,N/A,,Clear,280,2012-11-29 20:51:00
4:51 PM,39.9,16.2,38,30.16,10.0,Variable,4.6,-,N/A,,Clear,0,2012-11-29 21:51:00
5:51 PM,37.9,17.1,43,30.17,10.0,Calm,Calm,-,N/A,,Clear,0,2012-11-29 22:51:00
6:51 PM,37.9,19.0,47,30.17,10.0,Variable,5.8,-,N/A,,Clear,0,2012-11-29 23:51:00
7:51 PM,36.9,21.0,53,30.16,10.0,Variable,5.8,-,N/A,,Clear,0,2012-11-30 00:51:00
8:51 PM,36.9,22.1,55,30.16,10.0,South,4.6,-,N/A,,Clear,190,2012-11-30 01:51:00
9:51 PM,36.9,22.1,55,30.17,10.0,Variable,5.8,-,N/A,,Mostly Cloudy,0,2012-11-30 02:51:00
10:51 PM,37.9,23.0,55,30.18,10.0,Variable,4.6,-,N/A,,Overcast,0,2012-11-30 03:51:00
11:51 PM,37.9,24.1,57,30.21,10.0,NNE,6.9,-,N/A,,Overcast,20,2012-11-30 04:51:00